| time (UTC) | temp F | wind direction | speed knots | gust knots | rain 1hr in | rain 24hr in | rain mn in | humidity % | barometer mb |
| 20260905163043 | 70 | 69 | 0.0 | 0.0 | 0.00 | 0.00 | 0.00 | 75 | 1014.4 |
| 20260905161542 | 69 | 25 | 0.0 | 0.0 | 0.00 | 0.00 | 0.00 | 74 | 1014.4 |
| 20260905160047 | 69 | 245 | 0.0 | 0.0 | 0.00 | 0.00 | 0.00 | 74 | 1014.5 |
| 20260905154542 | 69 | 94 | 0.0 | 0.0 | 0.00 | 0.00 | 0.00 | 75 | 1014.2 |
| 20260905153040 | 70 | 39 | 0.0 | 0.0 | 0.00 | 0.00 | 0.00 | 75 | 1014.3 |
| 20260905151542 | 69 | 66 | 0.0 | 0.0 | 0.00 | 0.00 | 0.00 | 77 | 1014.4 |
| 20260905150039 | 68 | 80 | 0.0 | 0.0 | 0.00 | 0.00 | 0.00 | 76 | 1014.4 |
| 20260905144545 | 69 | 343 | 0.0 | 0.0 | 0.00 | 0.00 | 0.00 | 75 | 1014.3 |
| 20260905143048 | 68 | 77 | 0.0 | 0.0 | 0.00 | 0.00 | 0.00 | 79 | 1014.3 |
| 20260905141534 | 68 | 334 | 0.0 | 0.0 | 0.00 | 0.00 | 0.00 | 79 | 1014.3 |
| 20260905140032 | 68 | 98 | 0.0 | 0.0 | 0.00 | 0.00 | 0.00 | 78 | 1014.2 |
| 20260905134531 | 68 | 335 | 0.0 | 0.0 | 0.00 | 0.00 | 0.00 | 79 | 1013.9 |
| 20260905133029 | 68 | 134 | 0.0 | 0.0 | 0.00 | 0.00 | 0.00 | 78 | 1013.8 |
| 20260905131541 | 69 | 71 | 0.0 | 0.0 | 0.00 | 0.00 | 0.00 | 81 | 1013.6 |
| 20260905130025 | 67 | 224 | 0.0 | 0.0 | 0.00 | 0.00 | 0.00 | 83 | 1013.6 |
| 20260905124519 | 65 | 98 | 0.0 | 0.0 | 0.00 | 0.00 | 0.00 | 88 | 1013.5 |
| 20260905123017 | 64 | 98 | 0.0 | 0.0 | 0.00 | 0.00 | 0.00 | 92 | 1013.4 |
| 20260905121514 | 63 | 154 | 0.0 | 0.0 | 0.00 | 0.00 | 0.00 | 94 | 1013.4 |
| 20260905120011 | 62 | 154 | 0.0 | 0.0 | 0.00 | 0.00 | 0.00 | 94 | 1013.3 |
| 20260905114510 | 61 | 154 | 0.0 | 0.0 | 0.00 | 0.00 | 0.00 | 94 | 1013.4 |
| 20260905113008 | 60 | 154 | 0.0 | 0.0 | 0.00 | 0.00 | 0.00 | 95 | 1013.1 |
| 20260905111507 | 59 | 154 | 0.0 | 0.0 | 0.00 | 0.00 | 0.00 | 95 | 1012.9 |
| 20260905110005 | 59 | 154 | 0.0 | 0.0 | 0.00 | 0.00 | 0.00 | 95 | 1012.7 |
| 20260905104503 | 58 | 154 | 0.0 | 0.0 | 0.00 | 0.00 | 0.00 | 94 | 1012.6 |
| 20260905103008 | 58 | 154 | 0.0 | 0.0 | 0.00 | 0.00 | 0.00 | 94 | 1012.5 |
| 20260905101504 | 57 | 154 | 0.0 | 0.0 | 0.00 | 0.00 | 0.00 | 94 | 1012.2 |
| 20260905100002 | 57 | 154 | 0.0 | 0.0 | 0.00 | 0.01 | 0.00 | 94 | 1012.2 |
| 20260905094503 | 57 | 154 | 0.0 | 0.0 | 0.00 | 0.01 | 0.00 | 94 | 1012.1 |
| 20260905093103 | 58 | 154 | 0.0 | 0.0 | 0.00 | 0.01 | 0.00 | 94 | 1012.2 |
| 20260905091605 | 58 | 154 | 0.0 | 0.0 | 0.00 | 0.01 | 0.00 | 94 | 1011.9 |
| 20260905090100 | 58 | 154 | 0.0 | 0.0 | 0.00 | 0.01 | 0.00 | 94 | 1011.9 |
| 20260905084558 | 58 | 154 | 0.0 | 0.0 | 0.00 | 0.01 | 0.00 | 94 | 1011.9 |
| 20260905083058 | 58 | 154 | 0.0 | 0.0 | 0.00 | 0.01 | 0.00 | 94 | 1011.9 |
| 20260905081604 | 58 | 154 | 0.0 | 0.0 | 0.00 | 0.01 | 0.00 | 94 | 1011.9 |
| 20260905074555 | 58 | 154 | 0.0 | 0.0 | 0.00 | 0.01 | 0.00 | 94 | 1011.9 |
| 20260905073055 | 58 | 154 | 0.0 | 0.0 | 0.00 | 0.01 | 0.00 | 93 | 1011.9 |
| 20260905071556 | 58 | 154 | 0.0 | 0.0 | 0.00 | 0.01 | 0.00 | 93 | 1012.0 |
| 20260905070053 | 58 | 154 | 0.0 | 0.0 | 0.00 | 0.01 | 0.00 | 93 | 1011.9 |
| 20260905064551 | 59 | 154 | 0.0 | 0.0 | 0.00 | 0.01 | 0.00 | 93 | 1012.1 |
| 20260905063100 | 59 | 154 | 0.0 | 0.0 | 0.00 | 0.01 | 0.00 | 93 | 1012.0 |
| 20260905061607 | 59 | 154 | 0.0 | 0.0 | 0.00 | 0.01 | 0.00 | 93 | 1012.2 |
| 20260905060047 | 60 | 154 | 0.0 | 0.0 | 0.00 | 0.01 | 0.00 | 93 | 1012.3 |
| 20260905054547 | 59 | 154 | 0.0 | 0.0 | 0.00 | 0.01 | 0.00 | 92 | 1012.3 |
| 20260905053053 | 60 | 154 | 0.0 | 0.0 | 0.00 | 0.01 | 0.00 | 92 | 1012.2 |
| 20260905051546 | 60 | 154 | 0.0 | 0.0 | 0.00 | 0.01 | 0.00 | 92 | 1012.3 |
| 20260905050044 | 60 | 154 | 0.0 | 0.0 | 0.00 | 0.01 | 0.00 | 92 | 1012.2 |
| 20260905044542 | 60 | 154 | 0.0 | 0.0 | 0.00 | 0.01 | 0.00 | 91 | 1012.3 |
| 20260905043041 | 61 | 154 | 0.0 | 0.0 | 0.00 | 0.01 | 0.00 | 91 | 1012.4 |
| 20260905041538 | 61 | 154 | 0.0 | 0.0 | 0.00 | 0.01 | 0.00 | 91 | 1012.3 |
| 20260905040036 | 62 | 154 | 0.0 | 0.0 | 0.00 | 0.01 | 0.01 | 91 | 1012.3 |
| 20260905034534 | 62 | 154 | 0.0 | 0.0 | 0.00 | 0.01 | 0.01 | 91 | 1012.4 |
| 20260905033035 | 62 | 154 | 0.0 | 0.0 | 0.00 | 0.01 | 0.01 | 90 | 1012.4 |
| 20260905031532 | 63 | 154 | 0.0 | 0.0 | 0.00 | 0.01 | 0.01 | 89 | 1012.4 |
| 20260905030036 | 63 | 154 | 0.0 | 0.0 | 0.00 | 0.25 | 0.01 | 89 | 1012.5 |
| 20260905024533 | 64 | 154 | 0.0 | 0.0 | 0.00 | 0.25 | 0.01 | 88 | 1012.5 |
| 20260905023029 | 64 | 154 | 0.0 | 0.0 | 0.00 | 0.25 | 0.01 | 88 | 1012.6 |
| 20260905021529 | 64 | 154 | 0.0 | 0.0 | 0.00 | 0.25 | 0.01 | 88 | 1012.7 |
| 20260905020049 | 64 | 154 | 0.0 | 0.0 | 0.00 | 0.25 | 0.01 | 87 | 1012.6 |
| 20260905014526 | 64 | 154 | 0.0 | 0.0 | 0.00 | 0.25 | 0.01 | 90 | 1012.8 |
| 20260905013035 | 64 | 154 | 0.0 | 0.0 | 0.00 | 0.25 | 0.01 | 90 | 1013.0 |
| 20260905011525 | 64 | 154 | 0.0 | 0.0 | 0.00 | 0.25 | 0.01 | 89 | 1012.9 |
| 20260905010024 | 64 | 154 | 0.0 | 0.0 | 0.00 | 0.25 | 0.01 | 89 | 1012.9 |
| 20260905004524 | 64 | 154 | 0.0 | 0.0 | 0.00 | 0.25 | 0.01 | 88 | 1012.8 |
| 20260905003023 | 65 | 154 | 0.0 | 0.0 | 0.00 | 0.25 | 0.01 | 88 | 1012.9 |
| 20260905001523 | 65 | 154 | 0.0 | 0.0 | 0.00 | 0.25 | 0.01 | 87 | 1012.8 |
| 20260905000023 | 65 | 154 | 0.0 | 0.0 | 0.00 | 0.25 | 0.01 | 86 | 1012.7 |
| 20260904234522 | 66 | 154 | 0.0 | 0.0 | 0.00 | 0.25 | 0.01 | 84 | 1012.5 |
| 20260904233022 | 67 | 154 | 0.0 | 0.0 | 0.00 | 0.25 | 0.01 | 83 | 1012.4 |
| 20260904231526 | 68 | 154 | 0.0 | 0.0 | 0.00 | 0.25 | 0.01 | 83 | 1012.3 |
| 20260904230022 | 69 | 154 | 0.0 | 0.0 | 0.00 | 0.25 | 0.01 | 83 | 1012.3 |
| 20260904224523 | 70 | 154 | 0.0 | 0.0 | 0.00 | 0.25 | 0.01 | 83 | 1012.2 |
| 20260904223024 | 71 | 154 | 0.0 | 0.0 | 0.00 | 0.25 | 0.01 | 81 | 1012.2 |
| 20260904221519 | 71 | 154 | 0.0 | 0.0 | 0.00 | 0.25 | 0.01 | 77 | 1012.1 |
| 20260904220024 | 72 | 154 | 0.0 | 0.0 | 0.00 | 0.25 | 0.01 | 79 | 1012.2 |
| 20260904214518 | 74 | 154 | 0.0 | 0.0 | 0.00 | 0.25 | 0.01 | 72 | 1012.1 |
| 20260904213026 | 75 | 86 | 0.0 | 0.0 | 0.00 | 0.25 | 0.01 | 72 | 1012.2 |
| 20260904211519 | 76 | 83 | 0.0 | 0.0 | 0.00 | 0.25 | 0.01 | 70 | 1012.1 |
| 20260904210025 | 77 | 156 | 0.0 | 0.0 | 0.00 | 0.25 | 0.01 | 67 | 1011.9 |
| 20260904204516 | 76 | 250 | 0.0 | 0.0 | 0.00 | 0.25 | 0.01 | 73 | 1011.9 |
| 20260904203016 | 77 | 332 | 0.0 | 0.0 | 0.00 | 0.25 | 0.01 | 67 | 1011.9 |
| 20260904201515 | 76 | 344 | 0.0 | 0.0 | 0.00 | 0.25 | 0.01 | 64 | 1011.9 |
| 20260904200018 | 78 | 79 | 0.0 | 0.0 | 0.00 | 0.25 | 0.01 | 63 | 1011.9 |
| 20260904194514 | 78 | 243 | 0.0 | 0.0 | 0.00 | 0.25 | 0.01 | 69 | 1011.9 |
| 20260904193013 | 78 | 90 | 0.0 | 0.0 | 0.00 | 0.25 | 0.01 | 66 | 1011.8 |
| 20260904191512 | 79 | 114 | 0.0 | 0.0 | 0.00 | 0.25 | 0.01 | 67 | 1011.8 |
| 20260904190013 | 81 | 85 | 0.0 | 0.0 | 0.00 | 0.25 | 0.01 | 56 | 1011.8 |
| 20260904184510 | 82 | 342 | 0.0 | 0.9 | 0.00 | 0.25 | 0.01 | 55 | 1011.9 |
| 20260904183009 | 82 | 305 | 0.0 | 0.0 | 0.00 | 0.25 | 0.01 | 59 | 1011.9 |
| 20260904181507 | 82 | 269 | 0.0 | 0.0 | 0.00 | 0.25 | 0.01 | 57 | 1011.8 |
| 20260904180009 | 81 | 2 | 0.0 | 0.0 | 0.00 | 0.25 | 0.01 | 58 | 1011.9 |
| 20260904174504 | 81 | 34 | 0.0 | 0.0 | 0.00 | 0.25 | 0.01 | 61 | 1012.0 |
| 20260904173003 | 81 | 346 | 0.0 | 0.9 | 0.00 | 0.25 | 0.01 | 63 | 1012.0 |
| 20260904171501 | 81 | 86 | 0.0 | 0.0 | 0.00 | 0.25 | 0.01 | 61 | 1012.1 |
| 20260904170100 | 81 | 324 | 0.0 | 0.0 | 0.00 | 0.25 | 0.01 | 65 | 1012.3 |
| 20260904164559 | 81 | 239 | 0.0 | 0.0 | 0.00 | 0.25 | 0.01 | 68 | 1012.4 |